Weather History for La Crosse, WI

Change the Weather History Date:

Wednesday, April 24, 2013

  Actual Average Record
Temperature  
Mean Temperature 41 °F 52 °F  
Max Temperature 55 °F 63 °F 90 °F (2009)
Min Temperature 27 °F 42 °F 24 °F (1956)
Degree Days  
Heating Degree Days 24 13  
Month to date heating degree days 633 429  
Since 1 July heating degree days 7157 6882  
Cooling Degree Days 0 0  
Month to date cooling degree days 0 0  
Year to date cooling degree days 0 0  
Moisture  
Dew Point 27 °F    
Average Humidity 57    
Maximum Humidity 81    
Minimum Humidity 32    
Precipitation  
Precipitation 0.03 in 0.12 in 1.50 in (1950)
Month to date precipitation 5.77 2.60  
Year to date precipitation 10.29 6.81  
Snow  
Snow 0.00 in 0.10 in 1.80 in (1910)
Month to date snowfall 4.2 1.6  
Since 1 July snowfall 59.8 43.2  
Snow Depth 0.00 in    
Sea Level Pressure  
Sea Level Pressure 30.03 in    
Wind  
Wind Speed 7 mph (WSW)    
Max Wind Speed 31 mph    
Max Gust Speed 37 mph    
Visibility 10 miles    
Events Rain    
T = Trace of Precipitation, MM = Missing Value Source: NWS Daily Summary

Daily Weather History Graph

Daily Weather History Graph

Search for Another Location

Airport:

Trip Planner

Search our weather history database for the weather conditions in past years. The results will help you decide how hot, cold, wet, or windy it might be!

Date:

Astronomy

Apr. 24, 2013 Rise Set
Actual Time 6:06 AM CDT 7:59 PM CDT
Civil Twilight 5:36 AM CDT 8:30 PM CDT
Nautical Twilight 4:58 AM CDT 9:08 PM CDT
Astronomical Twilight 4:17 AM CDT 9:50 PM CDT
Moon 7:02 PM CDT (4/24) 5:13 AM CDT (4/24)
Length of Visible Light 14h 54m
Length of Day
13h 53m
Waxing Gibbous, 98% of the Moon is Illuminated
Apr 24
Waxing Gibbous
Apr 25
Full
May 2
Last Quarter
May 9
New
May 17
First Quarter

Hourly Weather History & Observations

Time (CDT) Temp. Windchill Dew Point Humidity Pressure Visibility Wind Dir Wind Speed Gust Speed Precip Events Conditions
12:53 AM 30.9 °F - 24.1 °F 76% 30.07 in 10.0 mi Calm Calm - N/A   Clear
1:53 AM 30.0 °F - 24.1 °F 79% 30.07 in 10.0 mi Calm Calm - N/A   Clear
2:53 AM 30.0 °F - 23.0 °F 75% 30.08 in 10.0 mi Calm Calm - N/A   Clear
3:53 AM 28.9 °F 25.2 °F 23.0 °F 78% 30.07 in 10.0 mi North 3.5 mph - N/A   Clear
5:53 AM 27.0 °F - 21.9 °F 81% 30.08 in 10.0 mi Calm Calm - N/A   Clear
6:53 AM 30.0 °F - 24.1 °F 79% 30.09 in 10.0 mi Calm Calm - N/A   Clear
7:53 AM 34.0 °F - 24.1 °F 67% 30.10 in 10.0 mi Calm Calm - N/A   Clear
8:53 AM 36.0 °F 33.3 °F 24.1 °F 62% 30.10 in 10.0 mi South 3.5 mph - N/A   Clear
9:53 AM 39.0 °F 34.8 °F 24.1 °F 55% 30.09 in 10.0 mi South 5.8 mph - N/A   Clear
10:53 AM 43.0 °F 39.5 °F 23.0 °F 45% 30.08 in 10.0 mi WNW 5.8 mph - N/A   Clear
11:53 AM 45.0 °F - 24.1 °F 44% 30.07 in 10.0 mi Calm Calm - N/A   Clear
12:53 PM 48.9 °F - 26.1 °F 41% 30.04 in 10.0 mi Variable 6.9 mph - N/A   Clear
1:53 PM 51.1 °F - 26.1 °F 38% 30.03 in 10.0 mi NW 8.1 mph - N/A   Mostly Cloudy
2:53 PM 52.0 °F - 26.1 °F 37% 30.02 in 10.0 mi SW 10.4 mph 20.7 mph N/A   Mostly Cloudy
3:53 PM 52.0 °F - 25.0 °F 35% 30.00 in 10.0 mi WSW 6.9 mph 17.3 mph N/A   Mostly Cloudy
4:53 PM 53.1 °F - 25.0 °F 34% 29.99 in 10.0 mi WSW 13.8 mph 24.2 mph N/A   Mostly Cloudy
5:53 PM 52.0 °F - 26.1 °F 37% 29.99 in 10.0 mi SW 16.1 mph - N/A   Mostly Cloudy
6:53 PM 50.0 °F - 25.0 °F 38% 29.97 in 10.0 mi SW 13.8 mph - N/A   Scattered Clouds
7:53 PM 48.9 °F - 26.1 °F 41% 29.94 in 10.0 mi SSW 12.7 mph - N/A   Mostly Cloudy
8:53 PM 44.1 °F 34.6 °F 34.0 °F 68% 29.99 in 7.0 mi SW 26.5 mph 36.8 mph 0.00 in Rain Light Rain
9:53 PM 42.1 °F 35.2 °F 36.0 °F 79% 29.99 in 10.0 mi SW 12.7 mph - 0.03 in   Overcast
10:20 PM 41.0 °F 35.2 °F 35.6 °F 81% 29.97 in 10.0 mi SW 9.2 mph 18.4 mph N/A   Overcast
10:40 PM 41.0 °F 35.8 °F 35.6 °F 81% 29.97 in 10.0 mi WSW 8.1 mph - 0.00 in   Overcast
10:53 PM 41.0 °F 34.7 °F 35.1 °F 79% 29.99 in 10.0 mi WSW 10.4 mph 19.6 mph 0.00 in   Overcast
11:36 PM 41.0 °F 35.2 °F 35.6 °F 81% 29.98 in 10.0 mi West 9.2 mph - N/A   Overcast
11:53 PM 41.0 °F 33.9 °F 35.1 °F 79% 30.00 in 10.0 mi West 12.7 mph - N/A   Overcast